| time (UTC) | temp F | wind direction | speed MPH | gust MPH | rain 1hr in | rain 24hr in | rain mn in | humidity % | barometer mb |
| 20260510201528 | 72 | 317 | 7.0 | 11.0 | 0.00 | 0.00 | 0.00 | 24 | 1018.8 |
| 20260510200014 | 72 | 98 | 1.0 | 4.0 | 0.00 | 0.00 | 0.00 | 22 | 1018.8 |
| 20260510194516 | 71 | 307 | 2.0 | 7.0 | 0.00 | 0.00 | 0.00 | 24 | 1019.0 |
| 20260510193022 | 70 | 360 | 3.0 | 7.0 | 0.00 | 0.00 | 0.00 | 22 | 1019.2 |
| 20260510191525 | 69 | 16 | 3.0 | 10.0 | 0.00 | 0.00 | 0.00 | 25 | 1019.4 |
| 20260510190013 | 69 | 348 | 3.0 | 9.0 | 0.00 | 0.00 | 0.00 | 28 | 1019.7 |
| 20260510184516 | 68 | 195 | 5.0 | 7.0 | 0.00 | 0.00 | 0.00 | 32 | 1019.9 |
| 20260510183022 | 67 | 304 | 4.0 | 9.0 | 0.00 | 0.00 | 0.00 | 26 | 1020.0 |
| 20260510181527 | 68 | 9 | 1.0 | 5.0 | 0.00 | 0.00 | 0.00 | 30 | 1020.1 |
| 20260510180028 | 67 | 11 | 1.0 | 4.0 | 0.00 | 0.00 | 0.00 | 30 | 1020.3 |
| 20260510174516 | 66 | 27 | 2.0 | 6.0 | 0.00 | 0.00 | 0.00 | 29 | 1020.5 |
| 20260510173020 | 65 | 296 | 1.0 | 4.0 | 0.00 | 0.00 | 0.00 | 31 | 1020.6 |
| 20260510171521 | 64 | 352 | 2.0 | 6.0 | 0.00 | 0.00 | 0.00 | 35 | 1020.6 |
| 20260510170025 | 63 | 296 | 3.0 | 5.0 | 0.00 | 0.00 | 0.00 | 46 | 1020.8 |
| 20260510164527 | 62 | 350 | 2.0 | 4.0 | 0.00 | 0.00 | 0.00 | 48 | 1020.8 |
| 20260510163020 | 60 | 21 | 1.0 | 4.0 | 0.00 | 0.00 | 0.00 | 46 | 1021.0 |
| 20260510161521 | 58 | 360 | 2.0 | 4.0 | 0.00 | 0.00 | 0.00 | 45 | 1021.1 |
| 20260510160034 | 58 | 294 | 3.0 | 5.0 | 0.00 | 0.00 | 0.00 | 49 | 1021.2 |
| 20260510154528 | 57 | 347 | 1.0 | 3.0 | 0.00 | 0.00 | 0.00 | 56 | 1021.2 |
| 20260510153036 | 55 | 352 | 1.0 | 3.0 | 0.00 | 0.00 | 0.00 | 53 | 1021.4 |
| 20260510151520 | 52 | 14 | 1.0 | 3.0 | 0.00 | 0.00 | 0.00 | 53 | 1021.6 |
| 20260510150011 | 52 | 275 | 3.0 | 4.0 | 0.00 | 0.00 | 0.00 | 52 | 1021.7 |
| 20260510144518 | 54 | 242 | 1.0 | 3.0 | 0.00 | 0.00 | 0.00 | 51 | 1021.6 |
| 20260510143018 | 53 | 237 | 1.0 | 4.0 | 0.00 | 0.00 | 0.00 | 51 | 1021.6 |
| 20260510141527 | 54 | 222 | 1.0 | 3.0 | 0.00 | 0.00 | 0.00 | 51 | 1021.6 |
| 20260510140022 | 52 | 129 | 0.0 | 1.0 | 0.00 | 0.00 | 0.00 | 51 | 1021.8 |
| 20260510134507 | 48 | 187 | 2.0 | 5.0 | 0.00 | 0.00 | 0.00 | 58 | 1021.8 |
| 20260510133013 | 46 | 169 | 4.0 | 6.0 | 0.00 | 0.00 | 0.00 | 62 | 1021.7 |
| 20260510131514 | 43 | 130 | 0.0 | 3.0 | 0.00 | 0.00 | 0.00 | 63 | 1021.8 |
| 20260510130020 | 42 | 132 | 0.0 | 0.0 | 0.00 | 0.00 | 0.00 | 62 | 1021.9 |
| 20260510124524 | 42 | 203 | 0.0 | 0.0 | 0.00 | 0.00 | 0.00 | 61 | 1022.0 |
| 20260510123010 | 43 | 203 | 0.0 | 0.0 | 0.00 | 0.00 | 0.00 | 59 | 1022.0 |
| 20260510121512 | 46 | 186 | 1.0 | 3.0 | 0.00 | 0.00 | 0.00 | 54 | 1021.9 |
| 20260510120019 | 47 | 99 | 2.0 | 4.0 | 0.00 | 0.00 | 0.00 | 52 | 1021.8 |
| 20260510114523 | 47 | 98 | 2.0 | 4.0 | 0.00 | 0.00 | 0.00 | 52 | 1021.9 |
| 20260510113026 | 47 | 102 | 2.0 | 3.0 | 0.00 | 0.00 | 0.00 | 52 | 1021.8 |
| 20260510111508 | 47 | 94 | 3.0 | 4.0 | 0.00 | 0.00 | 0.00 | 52 | 1021.8 |
| 20260510110020 | 47 | 116 | 3.0 | 4.0 | 0.00 | 0.00 | 0.00 | 53 | 1021.9 |
| 20260510104531 | 46 | 105 | 3.0 | 4.0 | 0.00 | 0.00 | 0.00 | 54 | 1021.9 |
| 20260510103026 | 47 | 104 | 3.0 | 4.0 | 0.00 | 0.00 | 0.00 | 53 | 1022.0 |
| 20260510101524 | 47 | 103 | 3.0 | 4.0 | 0.00 | 0.00 | 0.00 | 52 | 1022.0 |
| 20260510094537 | 47 | 117 | 2.0 | 3.0 | 0.00 | 0.00 | 0.00 | 51 | 1021.8 |
| 20260510093022 | 46 | 137 | 2.0 | 3.0 | 0.00 | 0.00 | 0.00 | 54 | 1021.8 |
| 20260510091526 | 46 | 136 | 1.0 | 2.0 | 0.00 | 0.00 | 0.00 | 53 | 1021.8 |
| 20260510090024 | 47 | 114 | 2.0 | 4.0 | 0.00 | 0.00 | 0.00 | 53 | 1021.8 |
| 20260510084516 | 46 | 117 | 2.0 | 3.0 | 0.00 | 0.00 | 0.00 | 55 | 1021.8 |
| 20260510083028 | 46 | 145 | 1.0 | 4.0 | 0.00 | 0.00 | 0.00 | 56 | 1021.9 |
| 20260510081534 | 46 | 114 | 2.0 | 3.0 | 0.00 | 0.00 | 0.00 | 56 | 1021.9 |
| 20260510080032 | 46 | 116 | 0.0 | 0.0 | 0.00 | 0.00 | 0.00 | 56 | 1021.8 |
| 20260510074529 | 46 | 116 | 0.0 | 0.0 | 0.00 | 0.00 | 0.00 | 56 | 1021.7 |
| 20260510073018 | 45 | 113 | 0.0 | 0.0 | 0.00 | 0.00 | 0.00 | 57 | 1021.7 |
| 20260510071524 | 46 | 205 | 0.0 | 0.0 | 0.00 | 0.00 | 0.00 | 56 | 1021.6 |
| 20260510070032 | 47 | 287 | 0.0 | 0.0 | 0.00 | 0.00 | 0.00 | 53 | 1021.5 |
| 20260510064525 | 49 | 306 | 0.0 | 0.0 | 0.00 | 0.00 | 0.00 | 50 | 1021.4 |
| 20260510063029 | 51 | 112 | 0.0 | 0.0 | 0.00 | 0.00 | 0.00 | 46 | 1021.3 |
| 20260510061526 | 51 | 46 | 0.0 | 6.0 | 0.00 | 0.00 | 0.00 | 46 | 1021.2 |
| 20260510060006 | 51 | 109 | 4.0 | 7.0 | 0.00 | 0.00 | 0.00 | 45 | 1021.2 |
| 20260510054535 | 52 | 109 | 6.0 | 8.0 | 0.00 | 0.00 | 0.00 | 45 | 1021.0 |
| 20260510053014 | 51 | 110 | 6.0 | 7.0 | 0.00 | 0.00 | 0.00 | 45 | 1021.1 |
| 20260510051529 | 52 | 116 | 6.0 | 7.0 | 0.00 | 0.00 | 0.00 | 45 | 1021.1 |
| 20260510050026 | 52 | 107 | 6.0 | 8.0 | 0.00 | 0.00 | 0.00 | 45 | 1021.2 |
| 20260510044523 | 52 | 104 | 6.0 | 8.0 | 0.00 | 0.00 | 0.00 | 45 | 1021.0 |
| 20260510043020 | 52 | 108 | 6.0 | 7.0 | 0.00 | 0.00 | 0.00 | 45 | 1021.0 |
| 20260510041516 | 52 | 106 | 6.0 | 8.0 | 0.00 | 0.00 | 0.00 | 45 | 1020.8 |
| 20260510040023 | 52 | 114 | 6.0 | 9.0 | 0.00 | 0.00 | 0.00 | 45 | 1020.7 |
| 20260510034522 | 52 | 116 | 6.0 | 8.0 | 0.00 | 0.00 | 0.00 | 45 | 1020.6 |
| 20260510033010 | 52 | 110 | 6.0 | 8.0 | 0.00 | 0.00 | 0.00 | 45 | 1020.4 |
| 20260510031512 | 52 | 103 | 5.0 | 7.0 | 0.00 | 0.00 | 0.00 | 45 | 1020.1 |
| 20260510030020 | 53 | 107 | 5.0 | 7.0 | 0.00 | 0.00 | 0.00 | 45 | 1020.1 |
| 20260510024520 | 54 | 103 | 3.0 | 4.0 | 0.00 | 0.00 | 0.00 | 43 | 1020.0 |
| 20260510023026 | 58 | 106 | 1.0 | 2.0 | 0.00 | 0.00 | 0.00 | 37 | 1019.9 |
| 20260510021516 | 59 | 84 | 1.0 | 2.0 | 0.00 | 0.00 | 0.00 | 34 | 1019.8 |
| 20260510020016 | 59 | 80 | 1.0 | 2.0 | 0.00 | 0.00 | 0.00 | 36 | 1019.8 |
| 20260510014521 | 60 | 73 | 0.0 | 2.0 | 0.00 | 0.00 | 0.00 | 33 | 1019.8 |
| 20260510013024 | 61 | 77 | 1.0 | 2.0 | 0.00 | 0.00 | 0.00 | 34 | 1019.7 |
| 20260510011529 | 61 | 66 | 0.0 | 2.0 | 0.00 | 0.00 | 0.00 | 35 | 1019.6 |
| 20260510010016 | 61 | 16 | 0.0 | 2.0 | 0.00 | 0.00 | 0.00 | 37 | 1019.8 |
| 20260510004520 | 63 | 348 | 2.0 | 5.0 | 0.00 | 0.00 | 0.00 | 33 | 1019.9 |
| 20260510003024 | 62 | 93 | 1.0 | 4.0 | 0.00 | 0.00 | 0.00 | 32 | 1020.0 |
| 20260510001529 | 63 | 331 | 2.0 | 4.0 | 0.00 | 0.00 | 0.00 | 33 | 1019.8 |
| 20260510000027 | 63 | 317 | 2.0 | 4.0 | 0.00 | 0.00 | 0.00 | 31 | 1019.6 |
| 20260509234520 | 62 | 347 | 4.0 | 8.0 | 0.00 | 0.00 | 0.00 | 31 | 1019.7 |
| 20260509233019 | 63 | 315 | 2.0 | 6.0 | 0.00 | 0.00 | 0.00 | 31 | 1019.7 |
| 20260509231526 | 62 | 269 | 4.0 | 7.0 | 0.00 | 0.00 | 0.00 | 32 | 1019.6 |
| 20260509230027 | 62 | 72 | 1.0 | 9.0 | 0.00 | 0.00 | 0.00 | 30 | 1019.7 |
| 20260509224528 | 62 | 326 | 3.0 | 8.0 | 0.00 | 0.00 | 0.00 | 31 | 1019.8 |
| 20260509223020 | 62 | 75 | 2.0 | 8.0 | 0.00 | 0.00 | 0.00 | 32 | 1019.8 |
| 20260509221529 | 61 | 360 | 4.0 | 8.0 | 0.00 | 0.00 | 0.00 | 36 | 1019.9 |
| 20260509220025 | 61 | 59 | 2.0 | 4.0 | 0.00 | 0.00 | 0.00 | 34 | 1020.0 |
| 20260509214526 | 61 | 347 | 2.0 | 5.0 | 0.00 | 0.00 | 0.00 | 39 | 1020.0 |
| 20260509213028 | 61 | 317 | 3.0 | 12.0 | 0.00 | 0.00 | 0.00 | 37 | 1020.1 |
| 20260509211509 | 62 | 352 | 3.0 | 5.0 | 0.00 | 0.00 | 0.00 | 35 | 1020.0 |
| 20260509210005 | 62 | 360 | 3.0 | 9.0 | 0.00 | 0.00 | 0.00 | 38 | 1019.9 |
| 20260509204505 | 61 | 346 | 6.0 | 13.0 | 0.00 | 0.00 | 0.00 | 38 | 1019.7 |
| 20260509203008 | 61 | 338 | 1.0 | 9.0 | 0.00 | 0.00 | 0.00 | 33 | 1019.9 |